Location: Breitenfeld
(46.8500°N, 15.6333°E)
Time: 16:28:35
(UTC+00:00)

Cosmos 1140 Rocket - Pass Details

Date: 09 April 2020
Orbit: 745 x 767 km, 74.1° (Epoch: 02 June)

Event Time Altitude Azimuth Distance (km) Brightness Sun altitude
Rises 18:23:42 0° 184° (S) 3,201 6.5 -8.3°
Reaches altitude 10° 18:26:07 10° 179° (S) 2,277 5.7 -8.7°
Maximum altitude 18:31:05 49° 105° (ESE) 963 3.6 -9.5°
Drops below altitude 10° 18:36:03 10° 32° (NNE) 2,280 5.9 -10.2°
Sets 18:38:28 0° 27° (NNE) 3,206 6.7 -10.6°
